User: anonymous   Login
Location: Unspecified
(0.0000°N, 0.0000°E)
Time: 08:13:24
(UTC+00:00)
Language:

Azur - Orbit

View from above orbital plane
View from above orbital plane
View from above satellite
View from above satellite

Ground track
Ground track

The orbit data is extracted from the following two-line orbital elements,

1  4221U 69097A   18173.92313843 +.00001019 +00000-0 +55775-4 0  9997
2  4221 102.6996 210.4451 0629494 279.2779 073.7764 14.25022352301967
Epoch (UTC): 22 June 2018 22:09:19
Eccentricity: 0.0629494
inclination: 102.6996°
perigee height: 356 km
apogee height: 1261 km
right ascension of ascending node: 210.4451°
argument of perigee: 279.2779°
revolutions per day: 14.25022352
mean anomaly at epoch: 73.7764°
orbit number at epoch: 30196

The dashed part of the orbit path shows where the satellite is in the earth's shadow,  

DLR